Disney Magic — C6PT7 — position and weather

sailwx.info

Track history (hours):
 
Tides and Currents Weather Stations Pressure Air Temp Water Temp Dewpoint Dewpoint Depression Visibility Wind Speed Wind Dir Waves Ship Positions

Disney Magic

Last reported at 2018-Feb-22 08:30 UTC. Time now 2018-Feb-22 08:53 UTC.
Position N 25°57' W 079°24'.

Type: Passenger vessel. MMSI: 308516000.

Date/timePositionNaut miles runAvg speedWind from/ knotsBaromVisibWave heightAir tempDewpointWater temp
2018-Feb-22 08:30N 25°57' W 079°24'1123.4
2018-Feb-22 08:01N 25°46' W 079°27'1223.5
2018-Feb-22 07:30N 25°34' W 079°30'14118.8
2018-Feb-22 00:00N 23°48' W 081°12'   090 / 251024.310.8 25.121.226.1
2018-Feb-19 11:00N 23°18' W 082°06'18418.2 090 / 221021.510.8 23.821.226.1
2018-Feb-19 00:55N 25°24' W 079°39'817.9
2018-Feb-19 00:30N 25°31' W 079°42'918.1
2018-Feb-19 00:00N 25°37' W 079°50'918.0
2018-Feb-18 23:30N 25°42' W 079°57'715.2
2018-Feb-18 23:01N 25°46' W 080°04'4 8.7
2018-Feb-18 22:30N 25°46' W 080°09'1 2.5
2018-Feb-18 21:59N 25°47' W 080°10'0 0.0
2018-Feb-18 21:26N 25°47' W 080°10'0 0.0
2018-Feb-18 20:59N 25°47' W 080°10'0 0.0
2018-Feb-18 20:29N 25°47' W 080°10'0 0.0
2018-Feb-18 19:59N 25°47' W 080°10'0 0.0
2018-Feb-18 19:29N 25°47' W 080°10'0 0.0
2018-Feb-18 18:59N 25°47' W 080°10'0 0.0
2018-Feb-18 18:29N 25°47' W 080°10'0 0.0
2018-Feb-18 17:59N 25°47' W 080°10'0 0.0
2018-Feb-18 17:29N 25°47' W 080°10'0 0.0
2018-Feb-18 16:59N 25°47' W 080°10'0 0.0
2018-Feb-18 16:29N 25°47' W 080°10'0 0.0
2018-Feb-18 15:59N 25°47' W 080°10'0 0.0
2018-Feb-18 15:26N 25°47' W 080°10'0 0.0
2018-Feb-18 14:59N 25°47' W 080°10'0 0.0
2018-Feb-18 14:29N 25°47' W 080°10'0 0.0
2018-Feb-18 13:59N 25°47' W 080°10'0 0.0
2018-Feb-18 13:29N 25°47' W 080°10'0 0.0
2018-Feb-18 12:59N 25°47' W 080°10'0 0.0
2018-Feb-18 12:29N 25°47' W 080°10'0 0.0
2018-Feb-18 11:59N 25°47' W 080°10'0 0.0
2018-Feb-18 11:26N 25°47' W 080°10'0 0.0
2018-Feb-18 10:59N 25°47' W 080°10'0 0.0
2018-Feb-18 10:29N 25°47' W 080°10'0 1.0
2018-Feb-18 10:00N 25°47' W 080°11'2 4.0
2018-Feb-18 09:29N 25°46' W 080°09'510.8
2018-Feb-18 09:00N 25°47' W 080°03'5 9.5
2018-Feb-18 08:30N 25°49' W 079°58'714.5
2018-Feb-18 08:00N 25°53' W 079°51'815.5
2018-Feb-18 07:30N 25°57' W 079°44'815.8
2018-Feb-18 07:00N 26°01' W 079°36'815.6
2018-Feb-18 06:30N 26°04' W 079°29'815.8
2018-Feb-18 06:00N 26°09' W 079°21'8911.1
2018-Feb-17 22:00N 25°18' W 078°00'60 5.5 170 / 91022.910.8 24.013.225.5
2018-Feb-17 11:00N 26°18' W 078°00'29 9.6 160 / 91021.910.8 20.915.624.9
2018-Feb-17 08:00N 25°54' W 077°42'35 0.7 120 / 71022.010.8 22.015.324.0
2018-Feb-15 07:00N 26°06' W 078°18'5413.6 090 / 101026.010.8 24.011.724.0
2018-Feb-15 03:00N 26°10' W 079°18'917.6
2018-Feb-15 02:30N 26°05' W 079°27'917.3
2018-Feb-15 02:00N 26°01' W 079°35'713.3
2018-Feb-15 01:29N 25°57' W 079°41'510.2
2018-Feb-15 01:00N 25°54' W 079°46'5 9.8
2018-Feb-15 00:30N 25°52' W 079°51'5 9.4
2018-Feb-15 00:01N 25°51' W 079°56'510.0
2018-Feb-14 23:30N 25°49' W 080°01'4 7.9
2018-Feb-14 23:01N 25°47' W 080°04'4 8.4
2018-Feb-14 22:30N 25°46' W 080°09'1 2.4
2018-Feb-14 21:58N 25°47' W 080°10'0 0.0
2018-Feb-14 21:28N 25°47' W 080°10'0 0.0
2018-Feb-14 20:55N 25°47' W 080°10'0 0.0
2018-Feb-14 20:28N 25°47' W 080°10'0 0.0
2018-Feb-14 19:55N 25°47' W 080°10'0 0.0
2018-Feb-14 19:28N 25°47' W 080°10'0 0.0
2018-Feb-14 18:58N 25°47' W 080°10'0 0.0
2018-Feb-14 18:28N 25°47' W 080°10'0 0.0
2018-Feb-14 17:58N 25°47' W 080°10'0 0.0
2018-Feb-14 17:28N 25°47' W 080°10'0 0.0
2018-Feb-14 16:58N 25°47' W 080°10'0 0.0
2018-Feb-14 16:28N 25°47' W 080°10'0 0.0
2018-Feb-14 15:58N 25°47' W 080°10'0 0.0
2018-Feb-14 15:28N 25°47' W 080°10'0 0.0
2018-Feb-14 14:58N 25°47' W 080°10'0 0.0
2018-Feb-14 14:28N 25°47' W 080°10'0 0.0
2018-Feb-14 13:58N 25°47' W 080°10'0 0.0
2018-Feb-14 13:28N 25°47' W 080°10'0 0.0
2018-Feb-14 12:58N 25°47' W 080°10'0 0.0
2018-Feb-14 12:28N 25°47' W 080°10'0 0.0
2018-Feb-14 11:58N 25°47' W 080°10'0 0.0
2018-Feb-14 11:28N 25°47' W 080°10'0 1.0
2018-Feb-14 11:00N 25°47' W 080°11'2 3.7
2018-Feb-14 10:29N 25°46' W 080°09'510.1
2018-Feb-14 10:00N 25°47' W 080°04'5 9.5
2018-Feb-14 09:31N 25°48' W 079°59'714.9
2018-Feb-14 09:01N 25°52' W 079°52'815.2
2018-Feb-14 08:31N 25°56' W 079°45'815.6
2018-Feb-14 08:01N 26°00' W 079°37'815.5
2018-Feb-14 07:31N 26°04' W 079°30'815.1
2018-Feb-14 07:00N 26°08' W 079°22'41187.7
2018-Feb-14 07:00N 26°06' W 079°18'65 7.2 090 / 181028.510.8 20.016.721.0
2018-Feb-13 22:00N 26°12' W 078°06'5 5.4 080 / 13 10.8 23.018.325.0
2018-Feb-13 21:00N 26°12' W 078°12'73 6.6 050 / 71028.527.0 24.720.126.4
2018-Feb-13 10:00N 25°00' W 078°24'7919.7 080 / 151025.710.8 22.519.425.1
2018-Feb-13 06:00N 26°18' W 078°12'   080 / 81028.127.0 23.622.126.6
Track history (hours):
 
Tides and Currents Weather Stations Pressure Air Temp Water Temp Dewpoint Dewpoint Depression Visibility Wind Speed Wind Dir Waves Ship Positions

Disney Magic

Last reported at 2018-Feb-22 08:30 UTC. Time now 2018-Feb-22 08:53 UTC.
Position N 25°57' W 079°24'.

Type: Passenger vessel. MMSI: 308516000.

Date/timePositionNaut miles runAvg speedWind from/ knotsBaromVisibWave heightAir tempDewpointWater temp
2018-Feb-22 08:30N 25°57' W 079°24'1123.4
2018-Feb-22 08:01N 25°46' W 079°27'1223.5
2018-Feb-22 07:30N 25°34' W 079°30'14118.8
2018-Feb-22 00:00N 23°48' W 081°12'   090 / 251024.310.8 25.121.226.1
2018-Feb-19 11:00N 23°18' W 082°06'18418.2 090 / 221021.510.8 23.821.226.1
2018-Feb-19 00:55N 25°24' W 079°39'817.9
2018-Feb-19 00:30N 25°31' W 079°42'918.1
2018-Feb-19 00:00N 25°37' W 079°50'918.0
2018-Feb-18 23:30N 25°42' W 079°57'715.2
2018-Feb-18 23:01N 25°46' W 080°04'4 8.7
2018-Feb-18 22:30N 25°46' W 080°09'1 2.5
2018-Feb-18 21:59N 25°47' W 080°10'0 0.0
2018-Feb-18 21:26N 25°47' W 080°10'0 0.0
2018-Feb-18 20:59N 25°47' W 080°10'0 0.0
2018-Feb-18 20:29N 25°47' W 080°10'0 0.0
2018-Feb-18 19:59N 25°47' W 080°10'0 0.0
2018-Feb-18 19:29N 25°47' W 080°10'0 0.0
2018-Feb-18 18:59N 25°47' W 080°10'0 0.0
2018-Feb-18 18:29N 25°47' W 080°10'0 0.0
2018-Feb-18 17:59N 25°47' W 080°10'0 0.0
2018-Feb-18 17:29N 25°47' W 080°10'0 0.0
2018-Feb-18 16:59N 25°47' W 080°10'0 0.0
2018-Feb-18 16:29N 25°47' W 080°10'0 0.0
2018-Feb-18 15:59N 25°47' W 080°10'0 0.0
2018-Feb-18 15:26N 25°47' W 080°10'0 0.0
2018-Feb-18 14:59N 25°47' W 080°10'0 0.0
2018-Feb-18 14:29N 25°47' W 080°10'0 0.0
2018-Feb-18 13:59N 25°47' W 080°10'0 0.0
2018-Feb-18 13:29N 25°47' W 080°10'0 0.0
2018-Feb-18 12:59N 25°47' W 080°10'0 0.0
2018-Feb-18 12:29N 25°47' W 080°10'0 0.0
2018-Feb-18 11:59N 25°47' W 080°10'0 0.0
2018-Feb-18 11:26N 25°47' W 080°10'0 0.0
2018-Feb-18 10:59N 25°47' W 080°10'0 0.0
2018-Feb-18 10:29N 25°47' W 080°10'0 1.0
2018-Feb-18 10:00N 25°47' W 080°11'2 4.0
2018-Feb-18 09:29N 25°46' W 080°09'510.8
2018-Feb-18 09:00N 25°47' W 080°03'5 9.5
2018-Feb-18 08:30N 25°49' W 079°58'714.5
2018-Feb-18 08:00N 25°53' W 079°51'815.5
2018-Feb-18 07:30N 25°57' W 079°44'815.8
2018-Feb-18 07:00N 26°01' W 079°36'815.6
2018-Feb-18 06:30N 26°04' W 079°29'815.8
2018-Feb-18 06:00N 26°09' W 079°21'8911.1
2018-Feb-17 22:00N 25°18' W 078°00'60 5.5 170 / 91022.910.8 24.013.225.5
2018-Feb-17 11:00N 26°18' W 078°00'29 9.6 160 / 91021.910.8 20.915.624.9
2018-Feb-17 08:00N 25°54' W 077°42'35 0.7 120 / 71022.010.8 22.015.324.0
2018-Feb-15 07:00N 26°06' W 078°18'5413.6 090 / 101026.010.8 24.011.724.0
2018-Feb-15 03:00N 26°10' W 079°18'917.6
2018-Feb-15 02:30N 26°05' W 079°27'917.3
2018-Feb-15 02:00N 26°01' W 079°35'713.3
2018-Feb-15 01:29N 25°57' W 079°41'510.2
2018-Feb-15 01:00N 25°54' W 079°46'5 9.8
2018-Feb-15 00:30N 25°52' W 079°51'5 9.4
2018-Feb-15 00:01N 25°51' W 079°56'510.0
2018-Feb-14 23:30N 25°49' W 080°01'4 7.9
2018-Feb-14 23:01N 25°47' W 080°04'4 8.4
2018-Feb-14 22:30N 25°46' W 080°09'1 2.4
2018-Feb-14 21:58N 25°47' W 080°10'0 0.0
2018-Feb-14 21:28N 25°47' W 080°10'0 0.0
2018-Feb-14 20:55N 25°47' W 080°10'0 0.0
2018-Feb-14 20:28N 25°47' W 080°10'0 0.0
2018-Feb-14 19:55N 25°47' W 080°10'0 0.0
2018-Feb-14 19:28N 25°47' W 080°10'0 0.0
2018-Feb-14 18:58N 25°47' W 080°10'0 0.0
2018-Feb-14 18:28N 25°47' W 080°10'0 0.0
2018-Feb-14 17:58N 25°47' W 080°10'0 0.0
2018-Feb-14 17:28N 25°47' W 080°10'0 0.0
2018-Feb-14 16:58N 25°47' W 080°10'0 0.0
2018-Feb-14 16:28N 25°47' W 080°10'0 0.0
2018-Feb-14 15:58N 25°47' W 080°10'0 0.0
2018-Feb-14 15:28N 25°47' W 080°10'0 0.0
2018-Feb-14 14:58N 25°47' W 080°10'0 0.0
2018-Feb-14 14:28N 25°47' W 080°10'0 0.0
2018-Feb-14 13:58N 25°47' W 080°10'0 0.0
2018-Feb-14 13:28N 25°47' W 080°10'0 0.0
2018-Feb-14 12:58N 25°47' W 080°10'0 0.0
2018-Feb-14 12:28N 25°47' W 080°10'0 0.0
2018-Feb-14 11:58N 25°47' W 080°10'0 0.0
2018-Feb-14 11:28N 25°47' W 080°10'0 1.0
2018-Feb-14 11:00N 25°47' W 080°11'2 3.7
2018-Feb-14 10:29N 25°46' W 080°09'510.1
2018-Feb-14 10:00N 25°47' W 080°04'5 9.5
2018-Feb-14 09:31N 25°48' W 079°59'714.9
2018-Feb-14 09:01N 25°52' W 079°52'815.2
2018-Feb-14 08:31N 25°56' W 079°45'815.6
2018-Feb-14 08:01N 26°00' W 079°37'815.5
2018-Feb-14 07:31N 26°04' W 079°30'815.1
2018-Feb-14 07:00N 26°08' W 079°22'41187.7
2018-Feb-14 07:00N 26°06' W 079°18'65 7.2 090 / 181028.510.8 20.016.721.0
2018-Feb-13 22:00N 26°12' W 078°06'5 5.4 080 / 13 10.8 23.018.325.0
2018-Feb-13 21:00N 26°12' W 078°12'73 6.6 050 / 71028.527.0 24.720.126.4
2018-Feb-13 10:00N 25°00' W 078°24'7919.7 080 / 151025.710.8 22.519.425.1
2018-Feb-13 06:00N 26°18' W 078°12'   080 / 81028.127.0 23.622.126.6

Dump ship's entire track history